owner,sensor,date,latitude,longitude,vertical_datum,mass_concentration_of_oxygen_in_sea_water,qcFlag 
NERRS,ioos:station:NOAA.NERRS:wkbfrwq:1,2019-01-01T00:45:00Z,30.4162,-87.8228,2.69,7.8,1111122 
NERRS,ioos:station:NOAA.NERRS:wkbfrwq:1,2019-01-01T01:45:00Z,30.4162,-87.8228,2.7,7.6,1111122 
NERRS,ioos:station:NOAA.NERRS:wkbfrwq:1,2019-01-01T02:45:00Z,30.4162,-87.8228,2.68,7.8,1111122 
NERRS,ioos:station:NOAA.NERRS:wkbfrwq:1,2019-01-01T03:45:00Z,30.4162,-87.8228,2.62,7.6,1111122 
NERRS,ioos:station:NOAA.NERRS:wkbfrwq:1,2019-01-01T04:45:00Z,30.4162,-87.8228,2.58,7.4,1111122 
NERRS,ioos:station:NOAA.NERRS:wkbfrwq:1,2019-01-01T05:45:00Z,30.4162,-87.8228,2.51,7.2,1111122 
NERRS,ioos:station:NOAA.NERRS:wkbfrwq:1,2019-01-01T06:45:00Z,30.4162,-87.8228,2.39,7.0,1111122 
NERRS,ioos:station:NOAA.NERRS:wkbfrwq:1,2019-01-01T07:45:00Z,30.4162,-87.8228,2.32,7.1,1111122 
NERRS,ioos:station:NOAA.NERRS:wkbfrwq:1,2019-01-01T08:45:00Z,30.4162,-87.8228,2.28,6.8,1111122 
NERRS,ioos:station:NOAA.NERRS:wkbfrwq:1,2019-01-01T09:45:00Z,30.4162,-87.8228,2.24,6.8,1111122 
NERRS,ioos:station:NOAA.NERRS:wkbfrwq:1,2019-01-01T10:45:00Z,30.4162,-87.8228,2.2,6.7,1111122 
NERRS,ioos:station:NOAA.NERRS:wkbfrwq:1,2019-01-01T11:45:00Z,30.4162,-87.8228,2.17,6.6,1111122 
NERRS,ioos:station:NOAA.NERRS:wkbfrwq:1,2019-01-01T13:45:00Z,30.4162,-87.8228,2.2,6.3,1111122 
NERRS,ioos:station:NOAA.NERRS:wkbfrwq:1,2019-01-01T14:45:00Z,30.4162,-87.8228,2.26,6.5,1111122 
NERRS,ioos:station:NOAA.NERRS:wkbfrwq:1,2019-01-01T15:45:00Z,30.4162,-87.8228,2.31,6.5,1111122 
NERRS,ioos:station:NOAA.NERRS:wkbfrwq:1,2019-01-01T16:45:00Z,30.4162,-87.8228,2.33,6.4,1111122 
NERRS,ioos:station:NOAA.NERRS:wkbfrwq:1,2019-01-01T18:45:00Z,30.4162,-87.8228,2.36,6.1,1111122 
NERRS,ioos:station:NOAA.NERRS:wkbfrwq:1,2019-01-01T19:45:00Z,30.4162,-87.8228,2.43,6.7,1111122 
NERRS,ioos:station:NOAA.NERRS:wkbfrwq:1,2019-01-01T20:45:00Z,30.4162,-87.8228,2.48,6.1,1111122 
NERRS,ioos:station:NOAA.NERRS:wkbfrwq:1,2019-01-01T22:45:00Z,30.4162,-87.8228,2.55,6.5,1111122 
NERRS,ioos:station:NOAA.NERRS:wkbfrwq:1,2019-01-01T23:45:00Z,30.4162,-87.8228,2.56,6.2,1111122 
NERRS,ioos:station:NOAA.NERRS:wkbfrwq:1,2019-01-02T00:45:00Z,30.4162,-87.8228,2.56,6.4,1111122 
NERRS,ioos:station:NOAA.NERRS:wkbfrwq:1,2019-01-02T01:45:00Z,30.4162,-87.8228,2.58,6.3,1111122 
NERRS,ioos:station:NOAA.NERRS:wkbfrwq:1,2019-01-02T02:45:00Z,30.4162,-87.8228,2.57,6.2,1111122 
NERRS,ioos:station:NOAA.NERRS:wkbfrwq:1,2019-01-02T03:45:00Z,30.4162,-87.8228,2.52,6.1,1111122 
NERRS,ioos:station:NOAA.NERRS:wkbfrwq:1,2019-01-02T04:45:00Z,30.4162,-87.8228,2.44,6.2,1111122 
NERRS,ioos:station:NOAA.NERRS:wkbfrwq:1,2019-01-02T05:45:00Z,30.4162,-87.8228,2.36,6.3,1111122 
NERRS,ioos:station:NOAA.NERRS:wkbfrwq:1,2019-01-02T06:45:00Z,30.4162,-87.8228,2.32,6.3,1111122 
NERRS,ioos:station:NOAA.NERRS:wkbfrwq:1,2019-01-02T07:45:00Z,30.4162,-87.8228,2.25,6.3,1111122 
NERRS,ioos:station:NOAA.NERRS:wkbfrwq:1,2019-01-02T08:45:00Z,30.4162,-87.8228,2.17,6.5,1111122 
NERRS,ioos:station:NOAA.NERRS:wkbfrwq:1,2019-01-02T09:45:00Z,30.4162,-87.8228,2.11,6.5,1111122 
NERRS,ioos:station:NOAA.NERRS:wkbfrwq:1,2019-01-02T10:45:00Z,30.4162,-87.8228,2.09,6.4,1111122 
NERRS,ioos:station:NOAA.NERRS:wkbfrwq:1,2019-01-02T11:45:00Z,30.4162,-87.8228,2.1,6.3,1111122 
NERRS,ioos:station:NOAA.NERRS:wkbfrwq:1,2019-01-02T12:45:00Z,30.4162,-87.8228,2.07,6.0,1111122 
NERRS,ioos:station:NOAA.NERRS:wkbfrwq:1,2019-01-02T13:45:00Z,30.4162,-87.8228,2.08,6.2,1111122 
NERRS,ioos:station:NOAA.NERRS:wkbfrwq:1,2019-01-02T14:45:00Z,30.4162,-87.8228,2.11,4.9,1111122 
NERRS,ioos:station:NOAA.NERRS:wkbfrwq:1,2019-01-02T15:45:00Z,30.4162,-87.8228,2.18,5.0,1111122 
NERRS,ioos:station:NOAA.NERRS:wkbfrwq:1,2019-01-02T16:45:00Z,30.4162,-87.8228,2.25,4.9,1111122 
NERRS,ioos:station:NOAA.NERRS:wkbfrwq:1,2019-01-02T17:45:00Z,30.4162,-87.8228,2.27,5.1,1111122 
NERRS,ioos:station:NOAA.NERRS:wkbfrwq:1,2019-01-02T18:45:00Z,30.4162,-87.8228,2.29,4.8,1111122 
NERRS,ioos:station:NOAA.NERRS:wkbfrwq:1,2019-01-02T19:45:00Z,30.4162,-87.8228,2.34,5.6,1111122 
NERRS,ioos:station:NOAA.NERRS:wkbfrwq:1,2019-01-02T21:45:00Z,30.4162,-87.8228,2.48,6.7,1111122 
NERRS,ioos:station:NOAA.NERRS:wkbfrwq:1,2019-01-02T23:45:00Z,30.4162,-87.8228,2.59,6.2,1111122 
NERRS,ioos:station:NOAA.NERRS:wkbfrwq:1,2019-01-03T00:45:00Z,30.4162,-87.8228,2.63,6.0,1111122 
NERRS,ioos:station:NOAA.NERRS:wkbfrwq:1,2019-01-03T01:45:00Z,30.4162,-87.8228,2.64,7.0,1111122 
NERRS,ioos:station:NOAA.NERRS:wkbfrwq:1,2019-01-03T02:45:00Z,30.4162,-87.8228,2.62,6.3,1111122 
NERRS,ioos:station:NOAA.NERRS:wkbfrwq:1,2019-01-03T03:45:00Z,30.4162,-87.8228,2.59,5.6,1111122 
NERRS,ioos:station:NOAA.NERRS:wkbfrwq:1,2019-01-03T04:45:00Z,30.4162,-87.8228,2.54,5.6,1111122 
NERRS,ioos:station:NOAA.NERRS:wkbfrwq:1,2019-01-03T05:45:00Z,30.4162,-87.8228,2.49,6.2,1111122 
NERRS,ioos:station:NOAA.NERRS:wkbfrwq:1,2019-01-03T06:45:00Z,30.4162,-87.8228,2.41,6.3,1111122 
NERRS,ioos:station:NOAA.NERRS:wkbfrwq:1,2019-01-03T07:45:00Z,30.4162,-87.8228,2.33,6.1,1111122 
NERRS,ioos:station:NOAA.NERRS:wkbfrwq:1,2019-01-03T08:45:00Z,30.4162,-87.8228,2.27,6.0,1111122 
NERRS,ioos:station:NOAA.NERRS:wkbfrwq:1,2019-01-03T09:45:00Z,30.4162,-87.8228,2.22,6.0,1111122 
NERRS,ioos:station:NOAA.NERRS:wkbfrwq:1,2019-01-03T10:45:00Z,30.4162,-87.8228,2.14,6.0,1111122 
NERRS,ioos:station:NOAA.NERRS:wkbfrwq:1,2019-01-03T11:45:00Z,30.4162,-87.8228,2.09,6.0,1111122 
NERRS,ioos:station:NOAA.NERRS:wkbfrwq:1,2019-01-03T12:45:00Z,30.4162,-87.8228,2.05,5.8,1111122 
NERRS,ioos:station:NOAA.NERRS:wkbfrwq:1,2019-01-03T13:45:00Z,30.4162,-87.8228,2.09,4.8,1111122 
NERRS,ioos:station:NOAA.NERRS:wkbfrwq:1,2019-01-03T14:45:00Z,30.4162,-87.8228,2.04,5.9,1111122 
NERRS,ioos:station:NOAA.NERRS:wkbfrwq:1,2019-01-03T15:45:00Z,30.4162,-87.8228,1.95,6.1,1111122 
NERRS,ioos:station:NOAA.NERRS:wkbfrwq:1,2019-01-03T16:45:00Z,30.4162,-87.8228,1.88,6.0,1111122 
NERRS,ioos:station:NOAA.NERRS:wkbfrwq:1,2019-01-03T17:45:00Z,30.4162,-87.8228,1.97,5.4,1111122 
NERRS,ioos:station:NOAA.NERRS:wkbfrwq:1,2019-01-03T19:45:00Z,30.4162,-87.8228,2.25,5.6,1111122 
NERRS,ioos:station:NOAA.NERRS:wkbfrwq:1,2019-01-03T20:45:00Z,30.4162,-87.8228,2.35,5.8,1111122 
NERRS,ioos:station:NOAA.NERRS:wkbfrwq:1,2019-01-03T21:45:00Z,30.4162,-87.8228,2.39,6.5,1111122 
NERRS,ioos:station:NOAA.NERRS:wkbfrwq:1,2019-01-03T23:45:00Z,30.4162,-87.8228,2.52,7.1,1111122 
NERRS,ioos:station:NOAA.NERRS:wkbfrwq:1,2019-01-04T00:45:00Z,30.4162,-87.8228,2.59,6.0,1111122 
NERRS,ioos:station:NOAA.NERRS:wkbfrwq:1,2019-01-04T01:45:00Z,30.4162,-87.8228,2.63,5.6,1111122 
NERRS,ioos:station:NOAA.NERRS:wkbfrwq:1,2019-01-04T02:45:00Z,30.4162,-87.8228,2.59,5.6,1111122 
NERRS,ioos:station:NOAA.NERRS:wkbfrwq:1,2019-01-04T03:45:00Z,30.4162,-87.8228,2.57,5.6,1111122 
NERRS,ioos:station:NOAA.NERRS:wkbfrwq:1,2019-01-04T04:45:00Z,30.4162,-87.8228,2.6,4.8,1111122 
NERRS,ioos:station:NOAA.NERRS:wkbfrwq:1,2019-01-04T05:45:00Z,30.4162,-87.8228,2.66,5.6,1111122 
NERRS,ioos:station:NOAA.NERRS:wkbfrwq:1,2019-01-04T06:45:00Z,30.4162,-87.8228,2.71,5.9,1111122 
NERRS,ioos:station:NOAA.NERRS:wkbfrwq:1,2019-01-04T07:45:00Z,30.4162,-87.8228,2.73,6.3,1111122 
NERRS,ioos:station:NOAA.NERRS:wkbfrwq:1,2019-01-04T08:45:00Z,30.4162,-87.8228,2.65,5.8,1111122 
NERRS,ioos:station:NOAA.NERRS:wkbfrwq:1,2019-01-04T09:45:00Z,30.4162,-87.8228,2.57,5.9,1111122 
NERRS,ioos:station:NOAA.NERRS:wkbfrwq:1,2019-01-04T10:45:00Z,30.4162,-87.8228,2.52,5.9,1111122 
NERRS,ioos:station:NOAA.NERRS:wkbfrwq:1,2019-01-04T11:45:00Z,30.4162,-87.8228,2.55,5.2,1111122 
NERRS,ioos:station:NOAA.NERRS:wkbfrwq:1,2019-01-04T12:45:00Z,30.4162,-87.8228,2.49,6.2,1111122 
NERRS,ioos:station:NOAA.NERRS:wkbfrwq:1,2019-01-04T13:45:00Z,30.4162,-87.8228,2.4,5.9,1111122 
NERRS,ioos:station:NOAA.NERRS:wkbfrwq:1,2019-01-04T14:45:00Z,30.4162,-87.8228,2.34,6.0,1111122 
NERRS,ioos:station:NOAA.NERRS:wkbfrwq:1,2019-01-04T16:45:00Z,30.4162,-87.8228,2.33,6.1,1111122 
NERRS,ioos:station:NOAA.NERRS:wkbfrwq:1,2019-01-04T17:45:00Z,30.4162,-87.8228,2.38,5.7,1111122 
NERRS,ioos:station:NOAA.NERRS:wkbfrwq:1,2019-01-04T18:45:00Z,30.4162,-87.8228,2.36,6.2,1111122 
NERRS,ioos:station:NOAA.NERRS:wkbfrwq:1,2019-01-04T20:45:00Z,30.4162,-87.8228,2.31,5.6,1111122 
NERRS,ioos:station:NOAA.NERRS:wkbfrwq:1,2019-01-04T21:45:00Z,30.4162,-87.8228,2.39,5.5,1111122 
NERRS,ioos:station:NOAA.NERRS:wkbfrwq:1,2019-01-04T22:45:00Z,30.4162,-87.8228,2.49,7.0,1111122 
NERRS,ioos:station:NOAA.NERRS:wkbfrwq:1,2019-01-05T01:45:00Z,30.4162,-87.8228,2.55,6.4,1111122 
NERRS,ioos:station:NOAA.NERRS:wkbfrwq:1,2019-01-05T02:45:00Z,30.4162,-87.8228,2.56,6.2,1111122 
NERRS,ioos:station:NOAA.NERRS:wkbfrwq:1,2019-01-05T03:45:00Z,30.4162,-87.8228,2.57,6.3,1111122 
NERRS,ioos:station:NOAA.NERRS:wkbfrwq:1,2019-01-05T04:45:00Z,30.4162,-87.8228,2.52,6.3,1111122 
NERRS,ioos:station:NOAA.NERRS:wkbfrwq:1,2019-01-05T05:45:00Z,30.4162,-87.8228,2.47,6.4,1111122 
NERRS,ioos:station:NOAA.NERRS:wkbfrwq:1,2019-01-05T06:45:00Z,30.4162,-87.8228,2.4,6.5,1111122 
NERRS,ioos:station:NOAA.NERRS:wkbfrwq:1,2019-01-05T07:45:00Z,30.4162,-87.8228,2.33,6.5,1111122 
NERRS,ioos:station:NOAA.NERRS:wkbfrwq:1,2019-01-05T08:45:00Z,30.4162,-87.8228,2.25,6.4,1111122 
NERRS,ioos:station:NOAA.NERRS:wkbfrwq:1,2019-01-05T09:45:00Z,30.4162,-87.8228,2.19,6.5,1111122 
NERRS,ioos:station:NOAA.NERRS:wkbfrwq:1,2019-01-05T10:45:00Z,30.4162,-87.8228,2.12,6.6,1111122 
NERRS,ioos:station:NOAA.NERRS:wkbfrwq:1,2019-01-05T11:45:00Z,30.4162,-87.8228,2.07,6.5,1111122 
NERRS,ioos:station:NOAA.NERRS:wkbfrwq:1,2019-01-05T12:45:00Z,30.4162,-87.8228,2.05,6.5,1111122 
NERRS,ioos:station:NOAA.NERRS:wkbfrwq:1,2019-01-05T13:45:00Z,30.4162,-87.8228,2.02,6.6,1111122 
NERRS,ioos:station:NOAA.NERRS:wkbfrwq:1,2019-01-05T14:45:00Z,30.4162,-87.8228,1.98,6.7,1111122 
NERRS,ioos:station:NOAA.NERRS:wkbfrwq:1,2019-01-05T15:45:00Z,30.4162,-87.8228,1.99,6.7,1111122 
NERRS,ioos:station:NOAA.NERRS:wkbfrwq:1,2019-01-05T17:45:00Z,30.4162,-87.8228,2.04,6.8,1111122 
NERRS,ioos:station:NOAA.NERRS:wkbfrwq:1,2019-01-05T19:45:00Z,30.4162,-87.8228,2.13,6.6,1111122 
NERRS,ioos:station:NOAA.NERRS:wkbfrwq:1,2019-01-05T20:45:00Z,30.4162,-87.8228,2.22,7.1,1111122 
NERRS,ioos:station:NOAA.NERRS:wkbfrwq:1,2019-01-05T21:45:00Z,30.4162,-87.8228,2.31,7.3,1111122 
NERRS,ioos:station:NOAA.NERRS:wkbfrwq:1,2019-01-05T22:45:00Z,30.4162,-87.8228,2.37,7.0,1111122 
NERRS,ioos:station:NOAA.NERRS:wkbfrwq:1,2019-01-05T23:45:00Z,30.4162,-87.8228,2.43,8.1,1111122 
NERRS,ioos:station:NOAA.NERRS:wkbfrwq:1,2019-01-06T00:45:00Z,30.4162,-87.8228,2.51,8.0,1111122 
NERRS,ioos:station:NOAA.NERRS:wkbfrwq:1,2019-01-06T01:45:00Z,30.4162,-87.8228,2.57,8.5,1111122 
NERRS,ioos:station:NOAA.NERRS:wkbfrwq:1,2019-01-06T02:45:00Z,30.4162,-87.8228,2.58,8.9,1111122 
NERRS,ioos:station:NOAA.NERRS:wkbfrwq:1,2019-01-06T04:45:00Z,30.4162,-87.8228,2.55,9.4,1111122 
NERRS,ioos:station:NOAA.NERRS:wkbfrwq:1,2019-01-06T05:45:00Z,30.4162,-87.8228,2.51,8.0,1111122 
NERRS,ioos:station:NOAA.NERRS:wkbfrwq:1,2019-01-06T06:45:00Z,30.4162,-87.8228,2.46,7.3,1111122 
NERRS,ioos:station:NOAA.NERRS:wkbfrwq:1,2019-01-06T07:45:00Z,30.4162,-87.8228,2.39,7.0,1111122 
NERRS,ioos:station:NOAA.NERRS:wkbfrwq:1,2019-01-06T08:45:00Z,30.4162,-87.8228,2.32,6.8,1111122 
NERRS,ioos:station:NOAA.NERRS:wkbfrwq:1,2019-01-06T09:45:00Z,30.4162,-87.8228,2.22,6.8,1111122 
NERRS,ioos:station:NOAA.NERRS:wkbfrwq:1,2019-01-06T10:45:00Z,30.4162,-87.8228,2.15,6.7,1111122 
NERRS,ioos:station:NOAA.NERRS:wkbfrwq:1,2019-01-06T11:45:00Z,30.4162,-87.8228,2.1,6.7,1111122 
NERRS,ioos:station:NOAA.NERRS:wkbfrwq:1,2019-01-06T12:45:00Z,30.4162,-87.8228,2.06,6.7,1111122 
NERRS,ioos:station:NOAA.NERRS:wkbfrwq:1,2019-01-06T13:45:00Z,30.4162,-87.8228,2.03,6.8,1111122 
NERRS,ioos:station:NOAA.NERRS:wkbfrwq:1,2019-01-06T14:45:00Z,30.4162,-87.8228,1.99,6.8,1111122 
NERRS,ioos:station:NOAA.NERRS:wkbfrwq:1,2019-01-06T15:45:00Z,30.4162,-87.8228,1.95,6.8,1111122 
NERRS,ioos:station:NOAA.NERRS:wkbfrwq:1,2019-01-06T16:45:00Z,30.4162,-87.8228,1.95,6.6,1111122 
NERRS,ioos:station:NOAA.NERRS:wkbfrwq:1,2019-01-06T17:45:00Z,30.4162,-87.8228,1.97,6.8,1111122 
NERRS,ioos:station:NOAA.NERRS:wkbfrwq:1,2019-01-06T18:45:00Z,30.4162,-87.8228,2.0,6.9,1111122 
NERRS,ioos:station:NOAA.NERRS:wkbfrwq:1,2019-01-06T19:45:00Z,30.4162,-87.8228,2.06,7.3,1111122 
NERRS,ioos:station:NOAA.NERRS:wkbfrwq:1,2019-01-06T20:45:00Z,30.4162,-87.8228,2.15,7.4,1111122 
NERRS,ioos:station:NOAA.NERRS:wkbfrwq:1,2019-01-06T21:45:00Z,30.4162,-87.8228,2.23,7.7,1111122 
NERRS,ioos:station:NOAA.NERRS:wkbfrwq:1,2019-01-06T23:45:00Z,30.4162,-87.8228,2.35,8.5,1111122 
NERRS,ioos:station:NOAA.NERRS:wkbfrwq:1,2019-01-07T00:45:00Z,30.4162,-87.8228,2.44,9.8,1111122 
NERRS,ioos:station:NOAA.NERRS:wkbfrwq:1,2019-01-07T01:45:00Z,30.4162,-87.8228,2.53,9.4,1111122 
NERRS,ioos:station:NOAA.NERRS:wkbfrwq:1,2019-01-07T02:45:00Z,30.4162,-87.8228,2.6,9.5,1111122 
NERRS,ioos:station:NOAA.NERRS:wkbfrwq:1,2019-01-07T03:45:00Z,30.4162,-87.8228,2.63,9.4,1111122 
NERRS,ioos:station:NOAA.NERRS:wkbfrwq:1,2019-01-07T04:45:00Z,30.4162,-87.8228,2.62,9.4,1111122 
NERRS,ioos:station:NOAA.NERRS:wkbfrwq:1,2019-01-07T05:45:00Z,30.4162,-87.8228,2.58,9.3,1111122 
NERRS,ioos:station:NOAA.NERRS:wkbfrwq:1,2019-01-07T06:45:00Z,30.4162,-87.8228,2.53,9.2,1111122 
NERRS,ioos:station:NOAA.NERRS:wkbfrwq:1,2019-01-07T08:45:00Z,30.4162,-87.8228,2.41,8.5,1111122 
NERRS,ioos:station:NOAA.NERRS:wkbfrwq:1,2019-01-07T09:45:00Z,30.4162,-87.8228,2.34,7.6,1111122 
NERRS,ioos:station:NOAA.NERRS:wkbfrwq:1,2019-01-07T10:45:00Z,30.4162,-87.8228,2.26,7.3,1111122 
NERRS,ioos:station:NOAA.NERRS:wkbfrwq:1,2019-01-07T11:45:00Z,30.4162,-87.8228,2.19,7.0,1111122 
NERRS,ioos:station:NOAA.NERRS:wkbfrwq:1,2019-01-07T12:45:00Z,30.4162,-87.8228,2.15,6.9,1111122 
NERRS,ioos:station:NOAA.NERRS:wkbfrwq:1,2019-01-07T13:45:00Z,30.4162,-87.8228,2.13,6.9,1111122 
NERRS,ioos:station:NOAA.NERRS:wkbfrwq:1,2019-01-07T14:45:00Z,30.4162,-87.8228,2.12,6.8,1111122 
NERRS,ioos:station:NOAA.NERRS:wkbfrwq:1,2019-01-07T15:45:00Z,30.4162,-87.8228,2.12,6.8,1111122 
NERRS,ioos:station:NOAA.NERRS:wkbfrwq:1,2019-01-07T17:45:00Z,30.4162,-87.8228,2.13,7.4,1111122 
NERRS,ioos:station:NOAA.NERRS:wkbfrwq:1,2019-01-07T18:45:00Z,30.4162,-87.8228,2.15,7.3,1111122 
NERRS,ioos:station:NOAA.NERRS:wkbfrwq:1,2019-01-07T19:45:00Z,30.4162,-87.8228,2.18,7.3,1111122 
NERRS,ioos:station:NOAA.NERRS:wkbfrwq:1,2019-01-07T21:45:00Z,30.4162,-87.8228,2.28,8.0,1111122 
NERRS,ioos:station:NOAA.NERRS:wkbfrwq:1,2019-01-07T23:45:00Z,30.4162,-87.8228,2.34,8.2,1111122 
NERRS,ioos:station:NOAA.NERRS:wkbfrwq:1,2019-01-08T00:45:00Z,30.4162,-87.8228,2.37,9.6,1111122 
NERRS,ioos:station:NOAA.NERRS:wkbfrwq:1,2019-01-08T01:45:00Z,30.4162,-87.8228,2.43,9.1,1111122 
NERRS,ioos:station:NOAA.NERRS:wkbfrwq:1,2019-01-08T02:45:00Z,30.4162,-87.8228,2.5,9.1,1111122 
NERRS,ioos:station:NOAA.NERRS:wkbfrwq:1,2019-01-08T03:45:00Z,30.4162,-87.8228,2.58,9.7,1111122 
NERRS,ioos:station:NOAA.NERRS:wkbfrwq:1,2019-01-08T04:45:00Z,30.4162,-87.8228,2.61,9.9,1111122 
NERRS,ioos:station:NOAA.NERRS:wkbfrwq:1,2019-01-08T05:45:00Z,30.4162,-87.8228,2.58,9.8,1111122 
NERRS,ioos:station:NOAA.NERRS:wkbfrwq:1,2019-01-08T06:45:00Z,30.4162,-87.8228,2.53,9.1,1111122 
NERRS,ioos:station:NOAA.NERRS:wkbfrwq:1,2019-01-08T07:45:00Z,30.4162,-87.8228,2.49,9.4,1111122 
NERRS,ioos:station:NOAA.NERRS:wkbfrwq:1,2019-01-08T08:45:00Z,30.4162,-87.8228,2.47,9.1,1111122 
NERRS,ioos:station:NOAA.NERRS:wkbfrwq:1,2019-01-08T09:45:00Z,30.4162,-87.8228,2.39,9.1,1111122 
NERRS,ioos:station:NOAA.NERRS:wkbfrwq:1,2019-01-08T10:45:00Z,30.4162,-87.8228,2.31,7.7,1111122 
NERRS,ioos:station:NOAA.NERRS:wkbfrwq:1,2019-01-08T11:45:00Z,30.4162,-87.8228,2.24,7.1,1111122 
NERRS,ioos:station:NOAA.NERRS:wkbfrwq:1,2019-01-08T12:45:00Z,30.4162,-87.8228,2.2,7.3,1111122 
NERRS,ioos:station:NOAA.NERRS:wkbfrwq:1,2019-01-08T13:45:00Z,30.4162,-87.8228,2.18,7.2,1111122 
NERRS,ioos:station:NOAA.NERRS:wkbfrwq:1,2019-01-08T14:45:00Z,30.4162,-87.8228,2.17,7.1,1111122 
NERRS,ioos:station:NOAA.NERRS:wkbfrwq:1,2019-01-08T15:45:00Z,30.4162,-87.8228,2.17,7.0,1111122 
NERRS,ioos:station:NOAA.NERRS:wkbfrwq:1,2019-01-08T16:45:00Z,30.4162,-87.8228,2.18,7.1,1111122 
NERRS,ioos:station:NOAA.NERRS:wkbfrwq:1,2019-01-08T17:45:00Z,30.4162,-87.8228,2.2,7.3,1111122 
NERRS,ioos:station:NOAA.NERRS:wkbfrwq:1,2019-01-08T18:45:00Z,30.4162,-87.8228,2.22,7.9,1111122 
NERRS,ioos:station:NOAA.NERRS:wkbfrwq:1,2019-01-08T19:45:00Z,30.4162,-87.8228,2.26,8.0,1111122 
NERRS,ioos:station:NOAA.NERRS:wkbfrwq:1,2019-01-08T20:45:00Z,30.4162,-87.8228,2.3,8.0,1111122 
NERRS,ioos:station:NOAA.NERRS:wkbfrwq:1,2019-01-08T21:45:00Z,30.4162,-87.8228,2.37,9.4,1111122 
NERRS,ioos:station:NOAA.NERRS:wkbfrwq:1,2019-01-08T22:45:00Z,30.4162,-87.8228,2.42,10.0,1111122 
NERRS,ioos:station:NOAA.NERRS:wkbfrwq:1,2019-01-09T00:45:00Z,30.4162,-87.8228,2.48,11.5,1111122 
NERRS,ioos:station:NOAA.NERRS:wkbfrwq:1,2019-01-09T01:45:00Z,30.4162,-87.8228,2.51,11.1,1111122 
NERRS,ioos:station:NOAA.NERRS:wkbfrwq:1,2019-01-09T02:45:00Z,30.4162,-87.8228,2.58,11.2,1111122 
NERRS,ioos:station:NOAA.NERRS:wkbfrwq:1,2019-01-09T03:45:00Z,30.4162,-87.8228,2.64,10.7,1111122 
NERRS,ioos:station:NOAA.NERRS:wkbfrwq:1,2019-01-09T04:45:00Z,30.4162,-87.8228,2.65,10.3,1111122 
NERRS,ioos:station:NOAA.NERRS:wkbfrwq:1,2019-01-09T05:45:00Z,30.4162,-87.8228,2.62,10.5,1111122 
NERRS,ioos:station:NOAA.NERRS:wkbfrwq:1,2019-01-09T06:45:00Z,30.4162,-87.8228,2.59,10.2,1111122 
NERRS,ioos:station:NOAA.NERRS:wkbfrwq:1,2019-01-09T07:45:00Z,30.4162,-87.8228,2.52,10.4,1111122 
NERRS,ioos:station:NOAA.NERRS:wkbfrwq:1,2019-01-09T08:45:00Z,30.4162,-87.8228,2.45,9.8,1111122 
NERRS,ioos:station:NOAA.NERRS:wkbfrwq:1,2019-01-09T09:45:00Z,30.4162,-87.8228,2.4,9.9,1111122 
NERRS,ioos:station:NOAA.NERRS:wkbfrwq:1,2019-01-09T10:45:00Z,30.4162,-87.8228,2.32,9.2,1111122 
NERRS,ioos:station:NOAA.NERRS:wkbfrwq:1,2019-01-09T11:45:00Z,30.4162,-87.8228,2.23,7.6,1111122 
NERRS,ioos:station:NOAA.NERRS:wkbfrwq:1,2019-01-09T12:45:00Z,30.4162,-87.8228,2.16,7.4,1111122 
NERRS,ioos:station:NOAA.NERRS:wkbfrwq:1,2019-01-09T13:45:00Z,30.4162,-87.8228,2.13,7.3,1111122 
NERRS,ioos:station:NOAA.NERRS:wkbfrwq:1,2019-01-09T14:45:00Z,30.4162,-87.8228,2.1,7.4,1111122 
NERRS,ioos:station:NOAA.NERRS:wkbfrwq:1,2019-01-09T17:45:00Z,30.4162,-87.8228,2.02,7.5,1111122 
NERRS,ioos:station:NOAA.NERRS:wkbfrwq:1,2019-01-09T18:45:00Z,30.4162,-87.8228,2.02,7.7,1111122 
NERRS,ioos:station:NOAA.NERRS:wkbfrwq:1,2019-01-09T19:45:00Z,30.4162,-87.8228,2.03,7.7,1111122 
NERRS,ioos:station:NOAA.NERRS:wkbfrwq:1,2019-01-09T21:45:00Z,30.4162,-87.8228,2.14,8.1,1111122 
NERRS,ioos:station:NOAA.NERRS:wkbfrwq:1,2019-01-09T23:45:00Z,30.4162,-87.8228,2.24,10.9,1111122 
NERRS,ioos:station:NOAA.NERRS:wkbfrwq:1,2019-01-10T00:45:00Z,30.4162,-87.8228,2.28,10.7,1111122 
NERRS,ioos:station:NOAA.NERRS:wkbfrwq:1,2019-01-10T01:45:00Z,30.4162,-87.8228,2.33,10.5,1111122 
NERRS,ioos:station:NOAA.NERRS:wkbfrwq:1,2019-01-10T02:45:00Z,30.4162,-87.8228,2.38,10.5,1111122 
NERRS,ioos:station:NOAA.NERRS:wkbfrwq:1,2019-01-10T03:45:00Z,30.4162,-87.8228,2.42,10.4,1111122 
NERRS,ioos:station:NOAA.NERRS:wkbfrwq:1,2019-01-10T04:45:00Z,30.4162,-87.8228,2.45,10.0,1111122 
NERRS,ioos:station:NOAA.NERRS:wkbfrwq:1,2019-01-10T05:45:00Z,30.4162,-87.8228,2.46,9.9,1111122 
NERRS,ioos:station:NOAA.NERRS:wkbfrwq:1,2019-01-10T06:45:00Z,30.4162,-87.8228,2.39,9.3,1111122 
NERRS,ioos:station:NOAA.NERRS:wkbfrwq:1,2019-01-10T07:45:00Z,30.4162,-87.8228,2.32,9.8,1111122 
NERRS,ioos:station:NOAA.NERRS:wkbfrwq:1,2019-01-10T08:45:00Z,30.4162,-87.8228,2.29,9.3,1111122 
NERRS,ioos:station:NOAA.NERRS:wkbfrwq:1,2019-01-10T09:45:00Z,30.4162,-87.8228,2.24,8.8,1111122 
NERRS,ioos:station:NOAA.NERRS:wkbfrwq:1,2019-01-10T10:45:00Z,30.4162,-87.8228,2.19,8.6,1111122 
NERRS,ioos:station:NOAA.NERRS:wkbfrwq:1,2019-01-10T11:45:00Z,30.4162,-87.8228,2.13,8.1,1111122 
NERRS,ioos:station:NOAA.NERRS:wkbfrwq:1,2019-01-10T12:45:00Z,30.4162,-87.8228,2.09,8.0,1111122 
NERRS,ioos:station:NOAA.NERRS:wkbfrwq:1,2019-01-10T13:45:00Z,30.4162,-87.8228,2.07,8.9,1111122 
NERRS,ioos:station:NOAA.NERRS:wkbfrwq:1,2019-01-10T14:45:00Z,30.4162,-87.8228,2.05,8.0,1111122 
NERRS,ioos:station:NOAA.NERRS:wkbfrwq:1,2019-01-10T15:45:00Z,30.4162,-87.8228,2.01,7.9,1111122 
NERRS,ioos:station:NOAA.NERRS:wkbfrwq:1,2019-01-10T16:45:00Z,30.4162,-87.8228,2.03,8.5,1111122 
NERRS,ioos:station:NOAA.NERRS:wkbfrwq:1,2019-01-10T18:45:00Z,30.4162,-87.8228,2.11,8.6,1111122 
NERRS,ioos:station:NOAA.NERRS:wkbfrwq:1,2019-01-10T19:45:00Z,30.4162,-87.8228,2.13,9.0,1111122 
NERRS,ioos:station:NOAA.NERRS:wkbfrwq:1,2019-01-10T20:45:00Z,30.4162,-87.8228,2.19,10.2,1111122 
NERRS,ioos:station:NOAA.NERRS:wkbfrwq:1,2019-01-10T21:45:00Z,30.4162,-87.8228,2.26,10.2,1111122 
NERRS,ioos:station:NOAA.NERRS:wkbfrwq:1,2019-01-10T23:45:00Z,30.4162,-87.8228,2.27,10.6,1111122 
NERRS,ioos:station:NOAA.NERRS:wkbfrwq:1,2019-01-11T00:45:00Z,30.4162,-87.8228,2.29,11.9,1111122 
NERRS,ioos:station:NOAA.NERRS:wkbfrwq:1,2019-01-11T01:45:00Z,30.4162,-87.8228,2.32,11.7,1111122 
NERRS,ioos:station:NOAA.NERRS:wkbfrwq:1,2019-01-11T02:45:00Z,30.4162,-87.8228,2.36,12.0,1111122 
NERRS,ioos:station:NOAA.NERRS:wkbfrwq:1,2019-01-11T03:45:00Z,30.4162,-87.8228,2.37,11.6,1111122 
NERRS,ioos:station:NOAA.NERRS:wkbfrwq:1,2019-01-11T04:45:00Z,30.4162,-87.8228,2.35,11.8,1111122 
NERRS,ioos:station:NOAA.NERRS:wkbfrwq:1,2019-01-11T05:45:00Z,30.4162,-87.8228,2.34,12.6,1111122 
NERRS,ioos:station:NOAA.NERRS:wkbfrwq:1,2019-01-11T06:45:00Z,30.4162,-87.8228,2.38,12.1,1111122 
NERRS,ioos:station:NOAA.NERRS:wkbfrwq:1,2019-01-11T07:45:00Z,30.4162,-87.8228,2.4,11.3,1111122 
NERRS,ioos:station:NOAA.NERRS:wkbfrwq:1,2019-01-11T08:45:00Z,30.4162,-87.8228,2.41,11.6,1111122 
NERRS,ioos:station:NOAA.NERRS:wkbfrwq:1,2019-01-11T09:45:00Z,30.4162,-87.8228,2.38,11.2,1111122 
NERRS,ioos:station:NOAA.NERRS:wkbfrwq:1,2019-01-11T10:45:00Z,30.4162,-87.8228,2.33,10.9,1111122 
NERRS,ioos:station:NOAA.NERRS:wkbfrwq:1,2019-01-11T11:45:00Z,30.4162,-87.8228,2.28,11.1,1111122 
NERRS,ioos:station:NOAA.NERRS:wkbfrwq:1,2019-01-11T12:45:00Z,30.4162,-87.8228,2.24,11.2,1111122 
NERRS,ioos:station:NOAA.NERRS:wkbfrwq:1,2019-01-11T13:45:00Z,30.4162,-87.8228,2.21,10.9,1111122 
NERRS,ioos:station:NOAA.NERRS:wkbfrwq:1,2019-01-11T14:45:00Z,30.4162,-87.8228,2.2,11.0,1111122 
NERRS,ioos:station:NOAA.NERRS:wkbfrwq:1,2019-01-11T15:45:00Z,30.4162,-87.8228,2.22,10.4,1111122 
NERRS,ioos:station:NOAA.NERRS:wkbfrwq:1,2019-01-11T16:45:00Z,30.4162,-87.8228,2.25,9.7,1111122 
NERRS,ioos:station:NOAA.NERRS:wkbfrwq:1,2019-01-11T17:45:00Z,30.4162,-87.8228,2.25,9.9,1111122 
NERRS,ioos:station:NOAA.NERRS:wkbfrwq:1,2019-01-11T18:45:00Z,30.4162,-87.8228,2.26,9.7,1111122 
NERRS,ioos:station:NOAA.NERRS:wkbfrwq:1,2019-01-11T19:45:00Z,30.4162,-87.8228,2.28,10.9,1111122 
NERRS,ioos:station:NOAA.NERRS:wkbfrwq:1,2019-01-11T21:45:00Z,30.4162,-87.8228,2.34,12.2,1111122 
NERRS,ioos:station:NOAA.NERRS:wkbfrwq:1,2019-01-11T22:45:00Z,30.4162,-87.8228,2.34,11.8,1111122 
NERRS,ioos:station:NOAA.NERRS:wkbfrwq:1,2019-01-12T00:45:00Z,30.4162,-87.8228,2.33,12.1,1111122 
NERRS,ioos:station:NOAA.NERRS:wkbfrwq:1,2019-01-12T01:45:00Z,30.4162,-87.8228,2.36,13.0,1111122 
NERRS,ioos:station:NOAA.NERRS:wkbfrwq:1,2019-01-12T02:45:00Z,30.4162,-87.8228,2.39,12.7,1111122 
NERRS,ioos:station:NOAA.NERRS:wkbfrwq:1,2019-01-12T03:45:00Z,30.4162,-87.8228,2.43,12.6,1111122 
NERRS,ioos:station:NOAA.NERRS:wkbfrwq:1,2019-01-12T04:45:00Z,30.4162,-87.8228,2.45,12.2,1111122 
NERRS,ioos:station:NOAA.NERRS:wkbfrwq:1,2019-01-12T05:45:00Z,30.4162,-87.8228,2.48,12.2,1111122 
NERRS,ioos:station:NOAA.NERRS:wkbfrwq:1,2019-01-12T06:45:00Z,30.4162,-87.8228,2.49,12.3,1111122 
NERRS,ioos:station:NOAA.NERRS:wkbfrwq:1,2019-01-12T08:45:00Z,30.4162,-87.8228,2.45,12.1,1111122 
NERRS,ioos:station:NOAA.NERRS:wkbfrwq:1,2019-01-12T11:45:00Z,30.4162,-87.8228,2.33,10.8,1111122 
NERRS,ioos:station:NOAA.NERRS:wkbfrwq:1,2019-01-12T12:45:00Z,30.4162,-87.8228,2.32,10.9,1111122 
NERRS,ioos:station:NOAA.NERRS:wkbfrwq:1,2019-01-12T13:45:00Z,30.4162,-87.8228,2.31,10.8,1111122 
NERRS,ioos:station:NOAA.NERRS:wkbfrwq:1,2019-01-12T14:45:00Z,30.4162,-87.8228,2.29,10.4,1111122 